Regional Weather Roundup
Issued by NWS State College, PA

Home | Current Version | Previous Version | Graphics & Text | Print | Product List | Glossary Off
Versions: 1 2 3 4 5 6 7 8 9 10 11 12 13 14 15 16 17 18 19 20 21 22 23 24 25 26 27 28 29 30 31 32 33 34 35 36 37 38 39 40 41 42 43 44 45 46 47 48 49 50

000
ASUS41 KCTP 251210
RWRCTP

REGIONAL WEATHER ROUNDUP
NATIONAL WEATHER SERVICE STATE COLLEGE PA
800 AM EDT FRI JUL 25 2014

Note: "fair" indicates few or no clouds below 12,000 feet with no
significant weather and/or obstructions to visibility.

* = STATION THAT DOES NOT REPORT PRECIPITATION /E.G. RAIN...SNOW...ETC/
    THUNDER OR FOG.

PAZ002>004-007>009-013>016-020>023-029>032-251300-
WESTERN PENNSYLVANIA

CITY           SKY/WX    TMP DP  RH WIND       PRES   REMARKS
ERIE           SUNNY     59  51  75 S7        30.10R
MEADVILLE      SUNNY     57  50  77 CALM      30.12R
FRANKLIN*      SUNNY     54  48  82 CALM      30.14R
NEW CASTLE       N/A     51  51 100 CALM      30.13S
BEAVER COUNTY  SUNNY     55  52  88 CALM      30.12R
BUTLER*        SUNNY     54  48  82 NE5       30.14R
PITTSBURGH INT MOSUNNY   59  50  72 N6        30.12R
PITTSBURGH     SUNNY     58  50  75 CALM      30.11R
INDIANA*       SUNNY     55  52  88 CALM      30.16R
LATROBE        SUNNY     55  55 100 CALM      30.12R
WASHINGTON CO* SUNNY     54  52  94 CALM      30.13R
$$

PAZ004>006-010>012-017>019-024>028-033>037-041-042-045-046-049>053-251300-
CENTRAL PENNSYLVANIA

CITY           SKY/WX    TMP DP  RH WIND       PRES   REMARKS
BRADFORD       SUNNY     51  47  86 CALM      30.13R
DUBOIS         SUNNY     57  52  83 CALM      30.12R
CLEARFIELD     FOG       50  50 100 CALM      30.13R VSB<1/4
JOHNSTOWN      SUNNY     56  52  86 CALM      30.12R
ALTOONA        SUNNY     58  55  90 CALM      30.12R
STATE COLLEGE  SUNNY     55  52  88 CALM      30.11R
WILLIAMSPORT   SUNNY     56  51  84 W6        30.09R
SELINSGROVE    SUNNY     57  53  86 CALM      30.10R
FT INDIANTOWN  SUNNY     62  54  76 CALM      30.07R
CAPITAL CITY   SUNNY     63  50  62 VRB5      30.08R
HARRISBURG     SUNNY     65  50  58 NW8       30.07R
YORK           SUNNY     61  53  75 W5        30.07R
$$

PAZ038>040-043-044-047-048-054-055-060>062-067>071-251300-
EASTERN PENNSYLVANIA

CITY           SKY/WX    TMP DP  RH WIND       PRES   REMARKS
SCRANTON       SUNNY     57  50  77 CALM      30.08R
MOUNT POCONO   SUNNY     59  49  69 N8        30.08R
ALLENTOWN      SUNNY     62  53  72 NW3       30.05R
QUAKERTOWN*    SUNNY     63  52  67 N5        30.05R
READING        SUNNY     63  52  67 CALM      30.05R
LANCASTER      SUNNY     61  51  70 VRB5      30.06R
COATESVILLE    SUNNY     61  50  67 NW8       30.06R
POTTSTOWN      SUNNY     62  53  72 NW5       30.06R
BLUE BELL      SUNNY     64  54  68 NW3       30.04R
DOYLESTOWN     SUNNY     63  53  70 N6        30.04R
WILLOW GROVE   NOT AVBL
NORTH PHILA    MOSUNNY   66  52  60 N8        30.05R
PHILADELPHIA   MOSUNNY   67  52  58 N8        30.03R
$$


USA.gov is the U.S. government's official web portal to all federal, state and local government web resources and services.